Diletta Casadei

ATLETICA ESTENSE
24-12-1984


Informazioni sul tesseramento aggiornate al 2022


Condividi con
Seguici su:


300 piani

Anno Data Tipo Cr. Cat. Piazz. Prestaz. Vento Città  
201904/09PESF351 se- 2 46.97Faenza
 

400 metri

Anno Data Tipo Cr. Cat. Piazz. Prestaz. Vento Città  
201012/06PESF4 se- 2 1:00.49Modena
201114/05PESF5 se- 1 1:01.51Imola
201109/07PESF1 se- 3 1:01.80Modena
200522/06PEPF1 se- 1 1:01.92San Marino
200628/06PEPF2 se- 2 1:01.92San Marino
200620/05PEPF2 se- 2 1:01.95Modena
201026/06PESF1 su- 1 1:01.98Riccione
201311/05PESF1 se- 2 1:01.99Imola
200916/05PESF4 se- 2 1:02.14Modena
200719/05PESF4 se- 2 1:02.21Modena
200525/04PEPF1 se- 3 1:02.27Modena
200827/09PESF1 se- 3 1:02.36Alessandria
201017/05PESF3 se- 2 1:02.39Imola
200904/07PESF1 se- 2 1:02.39Imola
200911/06PESF2 se- 2 1:02.40Imola
201107/06PESF5 se- 2 1:02.42Imola
200514/05PEPF6 se- 1 1:02.49Modena
200926/09PESF2 se- 2 1:02.55Montecassiano
200904/06PESF3 se- 2 1:02.62Ferrara
200902/05PESF3 se- 1 1:02.84Serravalle
201124/09PESF2 se- 3 1:02.87Colle Valdelsa
201319/06PESF6 se- 2 1:02.88Serravalle
200817/05PESF3 se- 1 1:02.93Imola
200723/06PESF6 se- 1 1:02.96Forli
201322/06PESF3 se- 3 1:03.03Modena
201614/06PESF4 su- 1 1:03.07Misano Adriatico
200530/04PEPF2 su- 1 1:03.11San Marino
200528/05PEPF5 se- 1 1:03.13Forli
201428/09PESF1 se- 1 1:03.13Matera
201601/06PESF1 se- 1 1:03.17Serravalle
200916/07PESF6 se- 2 1:03.18Bologna
201720/05PESF3 se- 5 1:03.20Modena
200707/06PESF4 se- 3 1:03.23Imola
200613/05PMPF4 se- 1 1:03.1Bologna
200523/07PMPF5 su- 1 1:03.2Misano Adriatico
200517/09PEPF3 se- 4 1:03.48Ferrara
201826/05PESF7 se- 3 1:03.65Forli
200729/09PESF5 se- 1 1:03.69Viareggio
200524/09PEPF5 se- 1 1:03.72Parma
201219/05PESF6 se- 2 1:03.74Modena
200805/07PESF3 se- 2 1:03.77Castelnovo Monti
202122/05PESF353 se- 5 1:03.77Faenza
202002/02IESF354 se- 6 1:03.89 Ancona
201714/06PESF1 se- 1 1:03.91Serravalle
201621/05PESF3 se- 7 1:03.94Modena
201414/07PESF4 su- 1 1:03.95Misano Adriatico
200813/09PESF2 se- 2 1:04.08San Marino
200805/06PESF2 se- 2 1:04.15Ferrara
202124/04PESF354 se- 1 1:04.35Serravalle
201706/05PESF4 se- 4 1:04.44Modena
202027/08PESF357 se- 1 1:04.63Misano Adriatico
202207/07PESF354 se- 3 1:05.01Imola
201930/08PESF352 su- 1 1:05.60Misano Adriatico
 

800 metri

Anno Data Tipo Cr. Cat. Piazz. Prestaz. Vento Città  
201002/06PESF2 se- 1 2:16.28Parma
201024/06PESF2 se- 1 2:16.53Ferrara
201022/07PESF3 se- 1 2:16.83Bologna
201014/07PESF10 se- 1 2:16.96Conegliano
201016/05PESF6 se- 1 2:17.10Imola
201015/09PESF6 se- 2 2:18.03Faenza
200529/05PEPF4 su- 1 2:18.62Forli
201130/06PESF2 se- 1 2:18.76Ferrara
201008/06PESF4 se- 1 2:18.96Imola
200514/07PEPF2 se- 1 2:19.18Bologna
200905/07PESF6 se- 1 2:19.20Imola
201013/06PESF1 se- 1 2:19.36Modena
201630/06PESF8 se- 3 2:19.76Ferrara
200507/07PEPF8 se- 1 2:19.95Ferrara
200618/06PEPF4 se- 1 2:20.05Ferrara
201616/06PESF5 se- 1 2:20.11Sasso Marconi
200916/09PESF4 se- 1 2:20.23Faenza
201001/05PESF1 su- 1 2:20.27Voltabarozzo
200515/05PEPF2 se- 2 2:20.30Modena
201115/05PESF4 se- 1 2:20.34Imola
201312/05PESF5 se- 1 2:20.35Imola
200526/05PMPF4 su- 1 2:20.5Bologna
201008/09PESF2 su- 1 2:20.86Misano Adriatico
200720/06PESF7 se- 1 2:20.89Imola
200923/06PESF9 se- 1 2:21.23Ferrara
200601/06PEPF5 se- 1 2:21.51Imola
200611/07PEPF6 se- 1 2:21.61Ferrara
201006/02IESF8 se- 1 2:21.66Ancona
200923/07PESF5 se- 1 2:21.67Bologna
200625/06PEPF6 se- 1 2:21.72Modena
200724/06PESF4 su- 1 2:21.77Forli
200927/09PESF7 se- 2 2:21.84Montecassiano
201516/05PESF7 su- 1 2:22.00Bologna
201125/09PESF7 se- 1 2:22.16Colle Valdelsa
201622/05PESF9 se- 1 2:22.31Modena
201305/06PESF8 se- 1 2:22.34Imola
201608/05PESF7 se- 1 2:22.42Modena
200909/09PESF3 su- 1 2:22.48Serravalle
200720/05PESF6 se- 1 2:22.54Modena
201311/06PESF2 se- 1 2:22.84Cesena
201820/05PESF5 se- 3 2:22.86Modena
200917/05PESF1 se- 3 2:23.02Modena
201116/06PESF3 se- 1 2:23.14Sasso Marconi
200512/06PEPF8 su- 1 2:23.23Conegliano
201501/02IESF4 se- 1 2:23.29Ancona
201814/06PESF4 se- 1 2:23.46Sasso Marconi
201630/04PESF6 se- 3 2:23.52Bologna
201410/07PESF2 su- 1 2:23.55Ferrara
201301/05PESF4 se- 2 2:23.57Trento
201114/09PESF9 se- 1 2:23.67Faenza
200703/02IESF4 se- 2 2:23.83Ancona
201429/06PESF1 se- 1 2:23.96Imola
201110/07PESF6 se- 2 2:24.00Modena
201806/05PESF4 se- 2 2:24.09Modena
201715/06PESF6 se- 1 2:24.10Sasso Marconi
200621/05PEPF7 se- 1 2:24.26Modena
201725/06PESF5 se- 1 2:24.42Faenza
200621/01IEPF3 se- 3 2:24.46Ancona
201510/05PESF10 se- 1 2:24.50Modena
200612/02IEPF5 ba- 1 2:24.59Ancona
200819/06PESF10 se- 2 2:24.61Imola
201721/05PESF9 se- 1 2:24.75Modena
200730/09PESF10 su- 1 2:24.83Viareggio
200810/07PESF2 se- 2 2:24.91Ferrara
201410/09PESF5 su- 1 2:25.00Faenza
200719/07PESF7 se- 1 2:25.10Bologna
201727/05PESF5 se- 2 2:25.13Ferrara
200604/02IEPF5 se- 2 2:25.20Ancona
201828/06PESF8 se- 2 2:25.23Ferrara
200525/09PEPF4 su- 1 2:25.24Parma
201819/06PESF8 se- 1 2:25.30Rubiera
200727/06PESF4 su- 1 2:25.53San Marino
200818/05PESF4 se- 2 2:26.00Imola
201525/01IESF6 se- 2 2:26.55Padova
200828/09PESF1 se- 2 2:26.74Alessandria
201724/09PESF12 su- 1 2:27.34Ravenna
200514/01IEPF5 se- 2 2:29.94Firenze
200806/07PESF10 se- 1 2:30.45Castelnovo Monti
 

1500 metri

Anno Data Tipo Cr. Cat. Piazz. Prestaz. Vento Città  
200530/06PEPF6 se- 1 4:54.94Bologna
200521/07PMPF12 se- 1 5:02.1Bologna
201325/05PESF1 se- 2 5:08.01Cesena
 

Attenzione: le schede-atleti sono composte automaticamente sulla base dei dati inseriti all'interno degli archivi nazionali aggiornati dal 2005 al 25-09-2022. Se un risultato non compare nelle graduatorie, quindi, è segno che lo stesso, con ogni probabilità, non è stato ancora inserito. Il processo di inserimento è di competenza dei Comitati Regionali sul cui territorio ha avuto luogo la manifestazione: eventuali segnalazioni per errori od omissioni, vanno dunque indirizzate agli stessi (potete utilizzare l'elenco con relativi contatti). Considerato però che solo le principali manifestazioni nazionali sono oggetto di inserimenti "in diretta" (sul posto di gara), mentre le altre, incluse le internazionali in programma all'estero, vengono inserite in tempi successivi, è opportuno attendere un ragionevole lasso di tempo prima di procedere ad una segnalazione.

Stickers


Non ventosi

GaraTipoPrestazioneVentoAnnoCittà
300 pianiPista 46.972019Faenza
400 metriPista 1:00.492010Modena
400 metriIndoor 1:03.892020 Ancona
800 metriPista 2:16.282010Parma
800 metriIndoor 2:21.662010Ancona
1500 metriPista 4:54.942005Bologna

AnnoTipo mov.CategoriaSocietà
2022RinnovoSeniores 35 FemminileATLETICA ESTENSE
2021RinnovoSeniores 35 FemminileATLETICA ESTENSE
2020RinnovoSeniores 35 FemminileATLETICA ESTENSE
2019RinnovoSeniores 35 FemminileATLETICA ESTENSE
2018RinnovoSeniores FemminileATLETICA ESTENSE
2017RinnovoSeniores FemminileATLETICA ESTENSE
2016RinnovoSeniores FemminileATLETICA ESTENSE
2015RinnovoSeniores FemminileATLETICA ESTENSE
2014RinnovoSeniores FemminileATLETICA ESTENSE
2013RinnovoSeniores FemminileATLETICA ESTENSE
2012RinnovoSeniores FemminileATLETICA ESTENSE
2011RinnovoSeniores FemminileATLETICA ESTENSE
2010RinnovoSeniores FemminileATLETICA ESTENSE
2009RinnovoSeniores FemminileATLETICA ESTENSE
2008RinnovoSeniores FemminileATLETICA ESTENSE
2007RinnovoSeniores FemminileATLETICA ESTENSE
2006RinnovoPromesse FemminileATLETICA ESTENSE
2005RinnovoPromesse FemminileATLETICA ESTENSE
2004RinnovoPromesse FemminileATLETICA ESTENSE
2003RinnovoJuniores FemminileCOOPSER ATL. ESTENSE
2002TrasferimentoJuniores FemminileCOOPSER ATL. ESTENSE
2001RinnovoAllieveRICCIONE SESSANTADUE
2000RinnovoAllievePOL. COMUNALE RICCIONE
1999RinnovoCadettePOL. COMUNALE RICCIONE
1998RinnovoCadettePOL. COMUNALE RICCIONE